Location: Newark
(45.8667°N, 9.7333°E)
Time: 17:40:21
(UTC+00:00)

A-11 Canister half - Pass Details

Date: 21 January 2020
Orbit: 1517 x 1683 km, 47.2° (Epoch: 21 February)

Event Time Altitude Azimuth Distance (km) Brightness Sun altitude
Rises 06:27:40 0° 292° (WNW) 4,666 - -5.1°
Exits shadow 06:29:23 - 290° (WNW) 4,130 10.6 -4.8°
Reaches altitude 10° 06:30:51 10° 286° (WNW) 3,686 10.3 -4.6°
Maximum altitude 06:39:25 44° 219° (SW) 2,024 9.6 -3.2°
Drops below altitude 10° 06:48:10 10° 151° (SSE) 3,753 12.1 -1.9°
Sets 06:51:27 0° 145° (SE) 4,758 12.9 -1.4°
